SCP
0 0 0 0 0 0 0 0 0 0 0 0 0 0 0 0 0 0 0 0 0 0 0 0 0 0 0 0 0 0 0 0 0 0 0 0 0 0
0 0 0 0 0 0 0 0 0 0 0 0 0 0 0 0 0 0 0 0 0 0 0 0 0 0 0 0 0 0 0 0 0 0 0 0 0 0
0 0 0 0 0 0 0 0 0 0 0 0 0 0 0 0 0 0 0 0 0 0 0 0 0 0 0 0 0 0 0 0 0 0 0 0 0 0
0 0 0 0 0 0 0 0 0 0 0 0 0 0 0 0 0 0 0 0 0 0 0 0 0 0 0 0 0 0 0 0 0 0 0 0 0 0
0 0 0 0 0 0 0 0 0 0 0 0 0 0 0 0 0 0 0 0 0 0 0 0 0 0 0 0 0 0 0 0 0 0 0 0 0 0
0 0 0 0 0 0 0 0 0 0 0 0 0 0 0 0 0 0 0 0 0 0 0 0 0 0 0 0 0 0 0 0 0 0 0 0 0 0
0 0 0 0 0 0 0 0 0 0 0 0 0 0 0 0 0 0 0 0 0 0 0 0 0 0 0 0 0 0 0 0 0 0 0 0 0 0
0 0 0 0 0 0 0 0 0 0 0 0 0 0 0 0 0 0 0 0 0 0 0 0 0 0 0 0 0 0 0 0 0 0 0 0 0 0
0 0 0 0 0 0 0 0 0 0 0 0 0 0 0 0 0 0 0 0 0 0 0 0 0 0 0 0 0 0 0 0 0 0 0 0 0 0
0 0 0 0 0 0 0 0 0 0 0 0 0 0 0 0 0 0 0 0 0 0 0 0 0 0 0 0 0 0 0 0 0 0 0 0 0 0
0 0 0 0 0 0 0 0 0 0 0 0 0 0 0 0 0 0 0 0 0 0 0 0 0 0 0 0 0 0 0 0 0 0 0 0 0 0
0 0 0 0 0 0 0 0 0 0 0 0 0 0 0 0 0 0 0 0 0 0 0 0 0 0 0 0 0 0 0 0 0 0 0 0 0 0
0 0 0 0 0 0 0 0 0 0 0 0 0 0 0 0 0 0 0 0 0 0 0 0 0 0 0 0 0 0 0 0 0 0 0 0 0 0
0 0 0 0 0 0 0 0 0 0 0 0 0 0 0 0 0 0 0 0 0 0 0 0 0 0 0 0 0 0 0 0 0 0 0 0 0 0
0 0 0 0 0 0 0 0 0 0 0 0 0 0 0 0 0 0 0 0 0 0 0 0 0 0 0 0 0 0 0 0 0 0 0 0 0 0
0 0 0 0 0 0 0 0 0 0 0 0 0 0 0 0 0 0 0 0 0 0 0 0 0 0 0 0 0 0 0 0 0 0 0 0 0 0
0 0 0 0 0 0 0 0 0 0 0 0 0 0 0 0 0 0 0 0 0 0 0 0 0 0 0 0 0 0 0 0 0 0 0 0 0 0
0 0 0 0 0 0 0 0 0 0 0 0 0 0 0 0 0 0 0 0 0 0 0 0 0 0 0 0 0 0 0 0 0 0 0 0 0 -0
0 0 0 0 0 0 0 0 0 0 0 0 0 0 0 0 0 0 0 0 0 0 0 0 0 0 0 0 0 0 0 0 0 0 0 0 0 0
0 0 0 0 0 0 0 0 0 0 0 0 0 0 0 0 0 0 0 0 0 0 0 0 0 0 0 0 0 0 0 0 0 0 0 0 0 0
0 0 0 0 0 0 0 0 0 0 0 0 0 0 0 0 0 0 0 0 0 0 0 0 0 0 0 0 0 0 0 0 0 0 0 0 0 0
0 0 0 0 0 0 0 0 0 0 0 0 0 0 0 0 0 0 0 0 0 0 0 0 0 0 0 0 0 0 0 0 0 0 0 0 0 0
0 0 0 0 0 0 0 0 0 0 0 0 0 0 0 0 0 0 0 0 0 0 0 0 0 0 0 0 0 0 0 0 0 0 0 0 0 0
Wind_Speed
4 5 4 4 4 4 4 4 4 4 5 5 4 3 3 3 9 9 9 17 19 18 17 16 15 14 14 13 13 12 11 11 11 11 11 10 10 9
4 4 5 4 4 4 4 4 4 4 4 4 5 3 3 3 10 9 9 17 19 18 17 17 16 15 14 14 13 12 12 12 12 12 11 10 9 9
4 4 5 5 4 4 4 4 4 4 5 3 3 3 4 4 5 5 6 8 10 17 18 17 16 16 15 15 14 13 13 13 13 13 12 11 10 10
5 4 4 4 4 4 4 5 4 5 4 5 3 3 5 4 4 5 5 7 7 14 17 17 17 16 16 15 15 14 14 14 13 13 13 13 12 11
5 5 4 4 4 3 3 4 4 4 4 4 3 3 3 3 3 3 4 4 6 10 15 15 16 17 16 16 15 15 14 14 14 13 13 12 11 11
5 4 4 3 3 3 3 3 4 4 4 4 3 3 3 3 4 4 4 4 4 6 8 10 13 15 16 16 16 16 15 15 14 14 13 12 11 11
6 5 4 4 5 4 3 3 3 3 3 4 4 3 4 4 5 4 5 4 3 4 5 6 7 7 9 13 16 17 16 16 15 14 14 13 12 12
6 5 5 4 6 6 6 6 6 5 4 4 4 5 5 5 5 5 5 5 4 4 5 5 6 7 7 7 13 17 17 17 16 15 15 14 13 12
6 5 5 5 4 3 5 6 7 9 9 6 5 6 5 5 6 7 6 5 4 5 5 5 5 6 5 7 16 17 18 17 17 16 15 14 13 13
5 4 4 4 3 4 4 4 5 5 6 6 6 5 5 4 6 6 6 4 3 3 4 4 4 4 4 6 15 17 17 17 17 16 15 14 13 13
5 4 4 3 5 6 4 5 5 4 4 6 6 6 7 7 6 5 6 6 5 3 2 4 4 4 3 4 8 15 15 15 15 16 16 15 14 12
4 4 4 4 6 6 4 5 5 4 3 3 3 5 6 7 10 8 7 7 5 4 4 4 5 4 4 2 4 7 8 11 14 14 15 15 14 8
4 4 3 6 7 7 6 4 6 5 3 3 2 3 3 4 5 5 5 6 6 4 6 5 5 4 4 4 3 5 6 6 7 8 12 14 14 10
4 3 4 8 9 9 6 5 6 5 2 2 2 2 3 3 4 4 5 4 4 5 9 7 5 6 6 5 4 5 6 6 6 6 7 10 10 9
4 6 8 10 9 6 5 6 4 2 1 1 1 1 1 2 3 3 4 4 4 5 7 5 6 7 6 6 6 6 5 6 7 7 7 7 7 6
4 6 8 8 5 5 4 3 2 1 0 1 1 1 1 2 3 3 4 5 5 4 4 5 7 8 5 6 7 7 5 7 8 7 7 6 6 6
4 4 4 3 2 2 2 2 1 1 0 0 1 2 2 3 3 3 3 4 4 4 4 3 4 4 5 6 7 7 6 5 6 7 7 6 6 7
4 4 4 3 3 2 2 1 1 1 1 1 1 2 2 3 3 3 3 4 5 5 4 4 5 4 3 2 4 7 6 5 6 6 5 6 6 6
3 5 5 4 3 2 2 2 2 2 1 2 2 2 3 3 3 3 4 4 4 5 5 5 5 5 5 4 3 5 7 6 6 6 6 5 6 6
5 5 5 4 3 3 3 2 2 2 2 2 3 3 3 3 4 4 4 5 5 5 5 5 5 5 5 5 4 4 7 7 7 7 6 4 3 3
5 5 5 5 4 4 3 3 3 3 3 3 4 4 4 4 4 4 5 7 6 5 6 6 5 5 2 4 4 3 3 5 6 6 7 5 4 3
6 5 5 5 4 4 4 4 3 4 4 4 4 4 5 5 5 6 6 6 5 5 5 4 4 4 3 4 5 5 4 3 2 3 5 6 6 7
6 6 5 5 5 4 4 4 5 4 4 4 4 5 5 5 5 5 6 6 6 6 5 5 4 3 3 4 4 4 6 6 4 3 3 6 6 6
Wind_Direction
265 258 243 233 231 225 220 203 193 210 228 226 228 234 217 194 169 182 177 186 186 187 187 186 186 186 188 190 191 188 186 182 177 177 179 179 177 173
268 256 248 233 229 227 223 220 211 208 224 219 215 215 218 204 183 191 185 185 188 187 187 186 186 186 186 183 180 178 177 173 172 172 173 173 171 169
292 279 266 247 230 229 224 220 221 214 229 240 220 211 211 205 189 196 179 175 188 189 187 186 185 185 183 180 177 175 173 171 170 170 172 169 165 161
301 298 285 272 243 228 220 219 219 214 213 229 228 210 214 203 189 195 190 180 182 189 189 187 185 183 182 179 175 173 172 171 168 168 168 168 167 165
308 303 299 294 270 245 228 222 222 225 213 215 223 210 210 196 191 201 197 182 185 186 188 187 184 182 179 177 174 172 171 168 165 165 165 164 164 167
309 302 297 296 287 274 257 242 230 224 219 216 218 206 200 189 177 189 199 191 185 175 180 180 180 178 177 174 173 170 167 164 163 162 162 161 163 165
313 306 298 292 291 276 265 256 244 229 220 215 220 210 202 185 189 182 191 181 187 169 162 170 169 174 177 176 174 171 167 165 164 163 162 161 161 161
309 306 297 283 282 280 268 258 245 238 229 219 220 219 216 204 189 181 177 178 191 177 166 171 169 174 175 176 174 171 168 166 164 163 161 160 161 163
299 300 303 306 310 299 291 275 260 249 236 225 225 223 211 200 189 188 187 183 181 166 156 168 167 174 169 170 169 169 168 167 165 163 162 161 161 161
300 298 300 309 329 334 312 292 273 253 238 230 229 228 215 197 190 189 181 162 134 151 151 157 159 152 143 155 166 165 165 164 163 163 162 161 159 159
324 328 325 325 329 333 307 291 286 273 250 234 224 218 209 198 180 164 170 169 166 167 153 141 142 125 126 150 161 160 158 159 161 163 163 159 156 155
322 326 349 343 329 324 306 294 288 282 269 244 223 213 206 196 191 187 182 179 161 161 167 146 143 135 128 126 149 158 154 155 158 161 161 159 155 152
318 326 340 346 336 325 311 286 279 284 273 255 229 194 182 183 188 190 187 182 170 162 165 148 144 138 131 132 141 160 157 153 155 159 163 164 165 163
302 313 323 329 326 318 308 293 293 286 254 240 228 202 188 185 178 174 175 177 174 162 163 155 146 155 140 136 146 153 160 160 158 161 166 170 174 177
284 298 303 307 311 307 298 305 309 289 252 229 219 205 181 160 146 140 136 131 120 135 153 155 145 148 144 144 148 150 153 166 168 166 169 176 180 176
293 301 297 294 288 286 294 293 285 295 292 240 196 162 141 137 136 134 137 133 124 116 119 139 147 148 142 140 146 152 155 164 171 170 167 176 186 188
319 300 288 286 291 287 290 295 304 336 336 225 142 142 143 140 136 135 138 134 132 142 134 121 112 112 126 142 149 157 158 160 166 167 166 178 192 196
305 286 287 282 276 276 279 275 263 248 219 169 143 139 146 149 146 145 145 141 141 142 142 141 133 114 92 61 144 159 164 164 163 166 162 174 196 202
263 265 268 266 262 258 249 238 237 224 192 177 172 169 161 157 156 157 154 149 148 149 151 151 154 149 151 158 185 179 166 163 162 171 181 178 193 203
234 248 256 254 248 245 240 230 223 216 200 191 184 181 174 169 168 170 167 160 154 150 153 162 173 171 167 165 165 181 180 164 166 176 182 186 188 182
246 241 241 239 234 234 231 222 215 212 208 199 196 189 182 176 176 174 171 168 161 158 169 180 186 174 139 119 124 139 165 174 168 170 171 172 186 193
252 250 243 232 226 223 222 219 217 215 210 208 202 194 187 185 185 180 176 173 175 172 173 167 155 156 158 158 161 161 159 150 137 156 175 175 170 192
242 244 242 235 225 218 215 216 219 221 213 206 202 196 192 190 188 183 181 177 173 172 163 157 159 165 174 170 167 165 165 167 163 169 217 210 192 162